{"data":{"norad_id":67393,"intl_designator":"2026-004AG","name":"HAWK-13C","alt_names":[],"object_type":"PAYLOAD","status":"ACTIVE","operator":null,"country":"US","launch_date":"2026-01-11","launch_site_code":"AFWTR","launch_vehicle":null,"mission":null,"orbit_class":"UNKNOWN","rcs_meters":null,"size_class":null,"mass_kg":null,"dimensions":null,"purposes":[],"wikipedia_slug":null,"has_3d_model":false,"image_url":null,"decayed_at":null,"tle_current":{"epoch":"2026-05-24T22:35:23.142048Z","epoch_age_seconds":76151,"freshness":"FRESH","line1":"1 67393U 26004AG  26144.94124007  .00004268  00000+0  20764-3 0  9995","line2":"2 67393  97.4584 144.4782 0007161  66.7671 293.4317 15.18915459 20239","mean_motion":15.18915459,"eccentricity":0.0007161,"inclination_deg":97.4584,"raan_deg":144.4782,"arg_perigee_deg":66.7671,"mean_anomaly_deg":293.4317,"bstar":0.00020764,"rev_number":2023,"period_min":94.80448641612,"perigee_km":504.18514142959,"apogee_km":514.04906675747,"semimajor_km":6887.2541040935,"source":"CELESTRAK","updated_at":"2026-05-25T13:38:06.959143Z"}}}